Regional Weather Roundup
Issued by NWS

Home | Current Version | Previous Version | Graphics & Text | Print | Product List | Glossary On
Versions: 1 2 3 4 5 6 7 8 9 10 11 12 13 14 15 16 17 18 19 20 21 22 23 24 25 26 27 28 29 30 31 32 33 34 35 36 37 38 39 40 41 42 43 44 45 46 47 48 49 50
000
ASUS43 KDTX 211210
RWRMI
MICHIGAN HOURLY REGIONAL WEATHER ROUNDUP
NATIONAL WEATHER SERVICE DETROIT/PONTIAC MI
800 AM EDT TUE APR 21 2015

NOTE: "FAIR" INDICATES FEW OR NO CLOUDS BELOW 12,000 FEET WITH NO
SIGNIFICANT WEATHER AND/OR OBSTRUCTION TO VISIBILITY.

MIZ047>049-052>055-059>063-066>070-074>076-081>083-211300-
SOUTHEAST LOWER MICHIGAN

CITY           SKY/WX    TMP DP  RH WIND       PRES   REMARKS
ADRIAN         MOSUNNY   41  36  82 SW13G20   29.60S
6HR MIN TEMP:  40; 6HR MAX TEMP:  43; 6HR PCP: TRACE;

ALMA           CLOUDY    40  35  82 SW10G16   29.50S
ANN ARBOR      CLOUDY    43  35  73 SW12G20   29.57S
BAD AXE        CLOUDY    37  34  87 W5        29.51S
6HR MIN TEMP:  37; 6HR MAX TEMP:  42;

DETROIT CITY   CLOUDY    44  33  65 SW14      29.58F
6HR MIN TEMP:  42; 6HR MAX TEMP:  45; 6HR PCP: TRACE;

DETROIT        PTSUNNY   45  35  68 S17       29.59F
6HR MIN TEMP:  42; 6HR MAX TEMP:  46;

FLINT          LGT RAIN  43  34  70 SW10      29.54S
6HR MIN TEMP:  42; 6HR MAX TEMP:  44; 6HR PCP: TRACE;

GROSSE ILE     PTSUNNY   45  37  76 SW10      29.59F
HILLSDALE      SUNNY     42  36  80 SW10G16   29.58R
6HR MIN TEMP:  41; 6HR MAX TEMP:  43;

HOWELL         CLOUDY    41  34  75 SW9G17    29.54S
6HR MIN TEMP:  39; 6HR MAX TEMP:  42;


CITY           SKY/WX    TMP DP  RH WIND       PRES   REMARKS
JACKSON        PTSUNNY   42  33  70 SW14      29.56S
6HR MIN TEMP:  40; 6HR MAX TEMP:  42; 6HR PCP: TRACE;

LAMBERTVILLE   MOSUNNY   45  34  65 SW10      29.62F
LANSING        CLOUDY    41  31  67 SW17G26   29.54S
6HR MIN TEMP:  41; 6HR MAX TEMP:  42;

LAPEER         NOT AVBL
MASON          PTSUNNY   41  32  70 SW14      29.54S
MONROE         PTSUNNY   45  36  70 SW16G24   29.58F
MT. CLEMENS    CLOUDY    44  35  71 SW14      29.54F
6HR MIN TEMP:  41; 6HR MAX TEMP:  45; 6HR PCP: TRACE;

PONTIAC        PTSUNNY   41  34  76 SW10      29.54S
6HR MIN TEMP:  40; 6HR MAX TEMP:  43; 6HR PCP:  0.01;

PORT HOPE        N/A     38  32  79 SW7G20    29.48S
6HR MIN TEMP:  38; 6HR MAX TEMP:  41; 6HR PCP:  0.01;

PORT HURON     CLOUDY    43  34  70 SW9G17    29.56S
TRI CITIES     CLOUDY    42  34  73 SW13      29.50S
6HR MIN TEMP:  39; 6HR MAX TEMP:  43; 6HR PCP:  0.01;

YPSILANTI      PTSUNNY   46  36  68 SW18      29.58F
6HR MIN TEMP:  44; 6HR MAX TEMP:  48;

$$
MIZ043>046-050>051-056>058-064>065-071>073-077>080-211300-
SOUTHWEST LOWER MICHIGAN

CITY           SKY/WX    TMP DP  RH WIND       PRES   REMARKS
BATTLE CREEK   PTSUNNY   41  32  70 SW17      29.56R
6HR MIN TEMP:  40; 6HR MAX TEMP:  43; 6HR PCP: TRACE;

BENTON HARBOR  SUNNY     40  32  73 SW22G31   29.59R
6HR MIN TEMP:  39; 6HR MAX TEMP:  42;

BIG RAPIDS     CLOUDY    38  34  85 SW12      29.45S
6HR MIN TEMP:  37; 6HR MAX TEMP:  38; 6HR PCP:  0.01;

COLDWATER      SUNNY     40  33  73 SW15G22   29.59R
6HR MIN TEMP:  39; 6HR MAX TEMP:  42;

HOLLAND        MOSUNNY   42  32  67 SW22G31   29.54R
6HR MIN TEMP:  41; 6HR MAX TEMP:  43;

GRAND RAPIDS   PTSUNNY   40  31  70 SW17      29.52S
6HR MIN TEMP:  40; 6HR MAX TEMP:  41; 6HR PCP:  0.01;

KALAMAZOO      CLOUDY    41  32  70 SW12      29.57R
6HR MIN TEMP:  39; 6HR MAX TEMP:  43; 6HR PCP: TRACE;

MARSHALL       CLOUDY    40  32  73 SW12G17   29.56S
MUSKEGON       CLOUDY    39  32  76 SW17G25   29.50S
6HR MIN TEMP:  39; 6HR MAX TEMP:  41; 6HR PCP: TRACE;

$$
MIZ016>042-211300-
NORTHERN LOWER MICHIGAN

CITY           SKY/WX    TMP DP  RH WIND       PRES   REMARKS
ALPENA         CLOUDY    39  33  79 S9        29.42F
6HR MIN TEMP:  38; 6HR MAX TEMP:  40; 6HR PCP: TRACE;

BEAVER ISLAND  CLOUDY    36  32  85 SW10G16   29.35S
6HR MIN TEMP:  35; 6HR MAX TEMP:  37;

BELLAIRE       FLURRIES  37  34  86 S10       29.39F
6HR MIN TEMP:  37; 6HR MAX TEMP:  39;

CADILLAC       CLOUDY    35  33  92 S12       29.40F
CHARLEVOIX     LGT RAIN  37  34  89 S9G17     29.40F
6HR MIN TEMP:  37; 6HR MAX TEMP:  37;

FRANKFORT      LGT RAIN  39  31  72 W10G18    29.41R
GAYLORD        LGT SNOW  33  33 100 SW10      29.37F FOG
6HR MIN TEMP:  33; 6HR MAX TEMP:  35; 6HR PCP: TRACE;

GRAYLING       CLOUDY    35  32  88 S7        29.40F
6HR MIN TEMP:  35; 6HR MAX TEMP:  37;

HARBOR SPRINGS LGT RAIN  36  32  87 S7        29.37S
HOUGHTON LAKE  CLOUDY    36  32  85 S9        29.42S
6HR MIN TEMP:  36; 6HR MAX TEMP:  38; 6HR PCP:  0.01;

MANISTEE       CLOUDY    37  30  75 SW13G24   29.43S
OSCODA         DRIZZLE   40  35  81 SW12      29.45S
PELLSTON       CLOUDY    37  33  85 S6        29.37F
6HR MIN TEMP:  37; 6HR MAX TEMP:  38; 6HR PCP:  0.01;

TRAVERSE CITY  LGT RAIN  37  34  89 S6        29.39S
6HR MIN TEMP:  37; 6HR MAX TEMP:  39; 6HR PCP: TRACE;

$$
MIZ007>008-015-211300-
EASTERN UPPER MICHIGAN

CITY           SKY/WX    TMP DP  RH WIND       PRES   REMARKS
KINROSS        CLOUDY    36  36 100 S7        29.34S
6HR MIN TEMP:  36; 6HR MAX TEMP:  36;

MACKINAC ISLAN CLOUDY    36  34  92 SW10      29.35F
6HR MIN TEMP:  36; 6HR MAX TEMP:  37;

NEWBERRY       CLOUDY    34  32  94 SW12      29.30F
S. S. MARIE    CLOUDY    35  33  92 S9        29.33S
6HR MIN TEMP:  35; 6HR MAX TEMP:  36; 6HR PCP: TRACE;

$$
MIZ004>006-011>014-085-211300-
CENTRAL UPPER MICHIGAN

CITY           SKY/WX    TMP DP  RH WIND       PRES   REMARKS
MANISTIQUE     CLOUDY    36  33  90 SW5       29.32S
6HR MIN TEMP:  36; 6HR MAX TEMP:  37;

ESCANABA       CLOUDY    36  30  80 SW7       29.33S
6HR MIN TEMP:  36; 6HR MAX TEMP:  37;

MENOMINEE      CLOUDY    37  28  70 W7        29.36S
6HR MIN TEMP:  36; 6HR MAX TEMP:  37;

SAWYER-GWINN   LGT SNOW  32  32 100 SW9       29.27R
$$
MIZ001>003-009>011-084-211300-
WESTERN UPPER MICHIGAN

CITY           SKY/WX    TMP DP  RH WIND       PRES   REMARKS
IRON MOUNTAIN  FLURRIES  34  30  85 SW10      29.30R
6HR MIN TEMP:  34; 6HR MAX TEMP:  36; 6HR PCP: TRACE;

HOUGHTON       LGT SNOW  33  31  92 W17       29.23R FOG
6HR MIN TEMP:  33; 6HR MAX TEMP:  34; 6HR PCP:  0.04;

COPPER HARBOR    N/A     34  32  92 N12       29.23R
6HR MIN TEMP:  34; 6HR MAX TEMP:  35; 6HR PCP:  0.05;

IRONWOOD       CLOUDY    30  28  93 W17       29.30R
6HR MIN TEMP:  30; 6HR MAX TEMP:  32;

$$

ABBREVIATIONS USED IN REMARKS
   TC - TEMPERATURE IN CELSIUS
  WCI - WIND CHILL INDEX
   HX - HEAT INDEX
  VSB - VISIBILITY




USA.gov is the U.S. government's official web portal to all federal, state and local government web resources and services.